Regional Weather Roundup
Issued by NWS

Home | Current Version | Previous Version | Graphics & Text | Print | Product List | Glossary On
Versions: 1 2 3 4 5 6 7 8 9 10 11 12 13 14 15 16 17 18 19 20 21 22 23 24 25 26 27 28
000
ASUS45 KCYS 290910
RWRWY

WYOMING REGIONAL WEATHER ROUNDUP
NATIONAL WEATHER SERVICE CHEYENNE WY
300 AM MDT FRI APR 29 2016

NOTE:  "FAIR" INDICATES FEW OR NO CLOUDS BELOW 12,000 FEET
WITH NO SIGNIFICANT WEATHER AND/OR OBSTRUCTIONS TO VISIBILITY.

WYZ001-291000-
YELLOWSTONE NATIONAL PARK

CITY           SKY/WX    TMP DP  RH WIND       PRES   REMARKS
LK YELLOWSTONE   N/A     25  21  85 CALM      29.95F
W YELLOWSTONE  NOT AVBL

$$
WYZ002>013-054>058-071-098>099-291000-
NORTHERN WYOMING

CITY           SKY/WX    TMP DP  RH WIND       PRES   REMARKS
JACKSON        CLOUDY    34  34 100 NW6       29.93F WCI  29
CODY           CLOUDY    34  30  86 CALM      30.00F
GREYBULL       CLOUDY    41  32  70 SE5       30.02F
WORLAND        CLOUDY    39  30  70 SE8       30.01F WCI  33
SHERIDAN       CLOUDY    37  33  85 S7        30.05F WCI  32
BUFFALO          N/A    N/A N/A N/A MISG      30.04F
GILLETTE       CLOUDY    35  33  92 CALM      30.06F
HULETT         CLOUDY    34  32  93 CALM      30.08F
NEWCASTLE      CLOUDY    34  34 100 S6        30.10S WCI  29

$$
WYZ014>020-022>026-101>103-291000-
CENTRAL WYOMING

CITY           SKY/WX    TMP DP  RH WIND       PRES   REMARKS
BIG PINEY      MOCLDY    27  23  85 SW6       29.93F WCI  20
PINEDALE       PTSUNNY   28  28 100 W7        29.92F WCI  21
DUBOIS         CLOUDY    27  25  93 SE3       29.97F
LANDER         CLOUDY    33  27  78 NW3       29.99F
RIVERTON       CLOUDY    33  27  78 NE5       30.01F WCI  29
CASPER         CLOUDY    32  29  88 E10       30.02F WCI  24
DOUGLAS        LGT SNOW  33  32  96 E8        30.05F FOG     WCI  26

$$
WYZ021-027>030-104>119-291000-
SOUTHERN WYOMING

CITY           SKY/WX    TMP DP  RH WIND       PRES   REMARKS
EVANSTON       FLURRIES  31  26  82 E17G23    29.90S WCI  19
FORT BRIDGER   CLOUDY    30  30 100 E9        29.95F WCI  22
ROCK SPRINGS   CLOUDY    31  26  82 NE15      29.94S WCI  20
DIXON          CLOUDY    35  32  88 NE5       29.90F WCI  31
RAWLINS        CLOUDY    30  27  88 E14       29.94F WCI  19
SARATOGA       CLOUDY    30  30 100 CALM      29.93F
LARAMIE        CLOUDY    30  27  88 SE13      29.95F WCI  20
CHEYENNE       LGT SNOW  32  30  92 SE13      30.02S FOG     WCI  22
TORRINGTON     CLOUDY    34  33  96 E5        30.06F WCI  30
PINE BLUFFS    CLOUDY    32  32 100 CALM      30.05S

$$




USA.gov is the U.S. government's official web portal to all federal, state and local government web resources and services.